Louisville Bowman, KY

5:30 AM EST on December 15, 2019 (GMT -0500)
Bowman

Weather History for KLOU - May, 2019

Change the Weather History Date:

Monday, May 27, 2019

  Actual Average Record
Temperature  
Mean Temperature 77 °F 70 °F  
Max Temperature 87 °F 80 °F 93 °F (2012)
Min Temperature 66 °F 60 °F 36 °F (1961)
Degree Days  
Heating Degree Days 0 1  
Month to date heating degree days 47 70  
Since 1 July heating degree days 4101 4261  
Cooling Degree Days 12 6  
Month to date cooling degree days 141 89  
Year to date cooling degree days 158 123  
Growing Degree Days 26 (Base 50)    
Moisture  
Dew Point 67 °F    
Average Humidity 71    
Maximum Humidity 93    
Minimum Humidity 48    
Precipitation  
Precipitation 0.00 in 0.15 in 1.31 in (2004)
Month to date precipitation 3.70 4.52  
Year to date precipitation 27.11 19.32  
Sea Level Pressure  
Sea Level Pressure 30.00 in    
Wind  
Wind Speed 7 mph (SSE)    
Max Wind Speed 20 mph    
Max Gust Speed 27 mph    
Visibility 4 miles    
Events Fog    
T = Trace of Precipitation, MM = Missing Value Source: NWS Daily Summary

Daily Weather History Graph

Daily Weather History Graph

Search for Another Location

Airport or City:

Astronomy

May. 27, 2019 Rise Set
Actual Time 6:23 AM EDT 8:56 PM EDT
Civil Twilight 5:52 AM EDT 9:27 PM EDT
Nautical Twilight 5:14 AM EDT 10:05 PM EDT
Astronomical Twilight 4:32 AM EDT 10:47 PM EDT
Moon 2:59 AM EDT (5/27) 2:15 PM EDT (5/27)
Length of Visible Light 15h 34m
Length of Day
14h 33m
Last Quarter, 41% of the Moon is Illuminated
May 27
Last Quarter
Jun 3
New
Jun 10
First Quarter
Jun 17
Full
Jun 25
Last Quarter

Hourly Weather History & Observations

Time (EDT) Temp. Heat Index Dew Point Humidity Pressure Visibility Wind Dir Wind Speed Gust Speed Precip Events Conditions
12:03 AM 66.9 °F - 64.9 °F 93% 30.05 in 1.5 mi Calm Calm - N/A   Clear
12:06 AM 68.0 °F - 64.9 °F 90% 30.05 in 0.8 mi Calm Calm - N/A   Mist
12:13 AM 69.1 °F - 66.9 °F 93% 30.06 in 0.5 mi Calm Calm - N/A Fog Fog
12:24 AM 69.1 °F - 66.0 °F 90% 30.06 in 1.2 mi Calm Calm - N/A   Partly Cloudy
12:27 AM 68.0 °F - 66.0 °F 93% 30.06 in 0.8 mi Calm Calm - N/A   Mist
12:37 AM 69.1 °F - 66.0 °F 90% 30.06 in 0.5 mi Calm Calm - N/A Fog Fog
12:44 AM 69.1 °F - 66.0 °F 90% 30.06 in 0.5 mi Calm Calm - N/A Fog Fog
12:53 AM 69.1 °F - 66.0 °F 90% 30.04 in 0.8 mi Calm Calm - N/A   Mist
1:18 AM 68.0 °F - 66.0 °F 93% 30.05 in 1.2 mi Calm Calm - N/A   Scattered Clouds
1:40 AM 66.9 °F - 64.9 °F 93% 30.05 in 3.0 mi South 3.5 mph - N/A   Clear
1:45 AM 68.0 °F - 64.9 °F 90% 30.05 in 1.8 mi South 3.5 mph - N/A   Clear
1:53 AM 69.1 °F - 66.0 °F 90% 30.03 in 2.0 mi South 3.5 mph - N/A   Clear
2:11 AM 69.1 °F - 66.0 °F 90% 30.05 in 5.0 mi Calm Calm - N/A   Clear
2:34 AM 69.1 °F - 66.0 °F 90% 30.04 in 6.0 mi SE 3.5 mph - N/A   Scattered Clouds
2:44 AM 69.1 °F - 66.0 °F 90% 30.03 in 5.0 mi Calm Calm - N/A   Mostly Cloudy
2:53 AM 69.1 °F - 66.0 °F 90% 30.02 in 4.0 mi South 3.5 mph - N/A   Mostly Cloudy
2:57 AM 69.1 °F - 66.0 °F 90% 30.03 in 1.8 mi Calm Calm - N/A   Overcast
3:12 AM 69.1 °F - 66.0 °F 90% 30.03 in 0.5 mi Calm Calm - N/A Fog Fog
3:53 AM 68.0 °F - 64.9 °F 90% 30.02 in 0.2 mi Calm Calm - N/A Fog Fog
4:27 AM 66.9 °F - 64.0 °F 90% 30.02 in 2.0 mi NE 3.5 mph - N/A   Overcast
4:35 AM 66.9 °F - 64.0 °F 90% 30.02 in 0.8 mi Calm Calm - N/A   Mostly Cloudy
4:53 AM 66.0 °F - 64.0 °F 93% 30.01 in 0.5 mi Calm Calm - N/A Fog Fog
5:53 AM 66.9 °F - 64.9 °F 93% 30.03 in 0.2 mi Calm Calm - N/A Fog Fog
6:53 AM 68.0 °F - 64.9 °F 90% 30.04 in 0.5 mi Calm Calm - N/A Fog Fog
7:03 AM 68.0 °F - 64.9 °F 90% 30.06 in 1.8 mi SSE 3.5 mph - N/A   Overcast
7:16 AM 68.0 °F - 66.0 °F 93% 30.06 in 0.2 mi ESE 3.5 mph - N/A Fog Fog
7:53 AM 69.1 °F - 66.0 °F 90% 30.05 in 0.5 mi SE 4.6 mph - N/A Fog Fog
8:13 AM 69.1 °F - 66.9 °F 93% 30.06 in 2.0 mi SE 4.6 mph - N/A   Overcast
8:29 AM 69.1 °F - 66.9 °F 93% 30.06 in 4.0 mi SE 5.8 mph - N/A   Overcast
8:36 AM 69.1 °F - 66.9 °F 93% 30.06 in 2.0 mi SE 5.8 mph - N/A   Overcast
8:53 AM 70.0 °F - 66.9 °F 90% 30.05 in 2.0 mi SSE 6.9 mph - N/A   Overcast
9:53 AM 71.1 °F - 66.9 °F 87% 30.05 in 2.0 mi SE 5.8 mph - N/A   Overcast
9:56 AM 71.1 °F - 68.0 °F 90% 30.06 in 3.0 mi SE 6.9 mph - N/A   Overcast
10:18 AM 71.1 °F - 68.0 °F 90% 30.06 in 3.0 mi SSE 6.9 mph - N/A   Overcast
10:53 AM 73.0 °F - 68.0 °F 84% 30.04 in 3.0 mi ESE 6.9 mph - N/A   Haze
11:19 AM 73.9 °F - 68.0 °F 82% 30.03 in 10.0 mi SE 6.9 mph - N/A   Overcast
11:53 AM 75.9 °F - 69.1 °F 79% 30.02 in 10.0 mi SE 3.5 mph - N/A   Mostly Cloudy
12:53 PM 80.1 °F 83.2 °F 70.0 °F 71% 30.00 in 10.0 mi Variable 6.9 mph - N/A   Scattered Clouds
1:53 PM 82.0 °F 85.9 °F 70.0 °F 67% 29.98 in 10.0 mi South 9.2 mph - N/A   Scattered Clouds
2:00 PM 82.0 °F 86.3 °F 71.1 °F 69% 29.99 in 10.0 mi South 5.8 mph - N/A   Mostly Cloudy
2:16 PM 82.9 °F 87.5 °F 71.1 °F 67% 29.99 in 10.0 mi South 8.1 mph - N/A   Mostly Cloudy
2:53 PM 82.9 °F 87.0 °F 70.0 °F 65% 29.96 in 10.0 mi South 11.5 mph 18.4 mph N/A   Mostly Cloudy
3:00 PM 82.9 °F 87.5 °F 71.1 °F 67% 29.97 in 10.0 mi South 5.8 mph 16.1 mph N/A   Scattered Clouds
3:53 PM 84.9 °F 88.8 °F 69.1 °F 59% 29.92 in 10.0 mi South 6.9 mph - N/A   Clear
4:53 PM 84.9 °F 88.8 °F 69.1 °F 59% 29.89 in 10.0 mi SW 9.2 mph 19.6 mph N/A   Scattered Clouds
5:53 PM 87.1 °F 92.0 °F 70.0 °F 57% 29.86 in 10.0 mi South 12.7 mph - N/A   Mostly Cloudy
6:53 PM 86.0 °F 87.6 °F 64.9 °F 49% 29.85 in 10.0 mi SW 18.4 mph 27.6 mph N/A   Clear
7:53 PM 84.0 °F 85.8 °F 64.9 °F 53% 29.84 in 10.0 mi SSW 10.4 mph - N/A   Clear
8:53 PM 82.0 °F 84.1 °F 66.0 °F 58% 29.82 in 10.0 mi SSW 9.2 mph - N/A   Clear
9:53 PM 81.0 °F 82.7 °F 64.9 °F 58% 29.82 in 10.0 mi SSW 9.2 mph - N/A   Clear
10:53 PM 79.0 °F - 66.0 °F 64% 29.84 in 10.0 mi South 6.9 mph - N/A   Clear
11:53 PM 77.0 °F - 66.0 °F 69% 29.83 in 10.0 mi South 6.9 mph - N/A   Clear